Location: Llanfihangel-Ystrad
(52.1833°N, 4.1667°W)
Time: 09:31:11
(UTC+00:00)

Cosmos 1455 - Pass Details

Date: 17 February 2020
Orbit: 500 x 523 km, 82.5° (Epoch: 27 March)

Event Time Altitude Azimuth Distance (km) Brightness Sun altitude
Exits shadow 05:41:35 18° 328° (NNW) 1,295 3.9 -17.1°
Drops below altitude 10° 05:43:07 10° 347° (NNW) 1,737 4.7 -16.9°
Sets 05:45:34 0° 2° (N) 2,623 5.8 -16.5°
